Current Version              Previous Version:    01  02  03  04  05  06  07  08  09  10  11  12  13  14  15  16  17  18  19  20  21  22  23  24  25  26  27  28  29  30  
   31  32  33  34  35  36  37  38  39  40  41  42  43  44  45  46  47  48  49  50  51  52  53  54  55  56  57  58  59  60  

[Printable]
815
ASUS44 KEWX 202310
RWRTX
SOUTH TEXAS REGIONAL WEATHER ROUNDUP
NATIONAL WEATHER SERVICE AUSTIN/SAN ANTONIO TX
600 PM CDT MON OCT 20 2014

NOTE: "FAIR" INDICATED FEW OR NO CLOUDS BELOW 12,000 FEET WITH NO
SIGNIFICANT WEATHER AND/OR OBSTRUCTIONS TO VISIBILITY.

* - THESE STATIONS ARE NOT NWS OR FAA STATIONS...AND ARE NOT SUBJECT
    TO NWS AND FAA QUALITY CONTROL.

TXZ171-172-183>190-210000-
TEXAS HILL COUNTRY AND EDWARDS PLATEAU

CITY           SKY/WX    TMP DP  RH WIND       PRES   REMARKS
JUNCTION       SUNNY     78  53  41 E7        30.01S
*LLANO         MOSUNNY   79  57  47 CALM      30.03F
BURNET         MOSUNNY   78  55  44 SE8       30.03S
*HORSESHOE BAY MOSUNNY   77  56  48 CALM      30.01S
*KERRVILLE     PTSUNNY   76  59  53 E6        30.02S
*FREDERICKSBRG MOSUNNY   75  56  51 SE6       30.02S
*ROCKSPRINGS   MOSUNNY   75  52  43 E7        30.04F
*BOERNE STAGE  PTSUNNY   79  54  41 E8        30.02S
*CASTROVILLE   PTSUNNY   82  52  36 E7        29.99S
HONDO          PTSUNNY   78  55  44 E9        29.99S
*UVALDE        PTSUNNY   81  57  43 SE7       29.97S
DEL RIO        PTSUNNY   79  63  57 S7        29.96S
LAUGHLIN AFB   PTSUNNY   79  62  56 SE8       29.96F
CARRIZO SPRGS  PTSUNNY   81  59  47 E5        29.92F
$$

TXZ173-191>194-202-209-217>225-228-210000-
CENTRAL AND SOUTH CENTRAL TEXAS

CITY           SKY/WX    TMP DP  RH WIND       PRES   REMARKS
GEORGETOWN     SUNNY     81  57  44 MISG      30.00S
AUSTIN/BERGSTM PTSUNNY   77  59  53 E8        29.99S
AUSTIN/MABRY   MOSUNNY   79  59  50 NE5       30.00S
*AUSTIN/EXEC   MOSUNNY   77  59  53 SE6       30.00S
*LAGO VISTA    MOSUNNY   78  57  48 E6        30.02S
SAN MARCOS     SUNNY     79  55  44 E13       30.00S
NEW BRAUNFELS  PTSUNNY   81  57  43 NE13      29.97F
RANDOLPH AFB   PTSUNNY   80  57  46 E9        29.98S
PT SAN ANTONIO PTSUNNY   82  58  43 E10       29.96S
SAN ANTONIO    PTSUNNY   81  58  45 E12       29.98S
STINSON FIELD  MOSUNNY   83  57  41 E7        29.95F
*PLEASANTON    MOSUNNY   82  57  43 NE8       29.96S
*LA GRANGE     SUNNY     80  63  57 NE3       29.97S
*GIDDINGS      CLEAR     78  60  53 E7        30.03S
*GONZALES      SUNNY     81  61  50 E7        29.97S
$$

TXZ163>164-176>182-195>201-210>213-226-227-235-210000-
SOUTHEAST TEXAS

CITY           SKY/WX    TMP DP  RH WIND       PRES   REMARKS
COLLEGE STN    CLEAR     78  59  51 NE7       30.00S
*BRYAN         CLEAR     76  62  61 E5        30.01S
*CALDWELL      CLEAR     79  57  47 CALM      30.03S
*CROCKETT      CLEAR     79  63  57 NE6       30.05R
*BRENHAM       CLEAR     79  61  54 NE5       30.00S
HUNTSVILLE     CLEAR     78  59  51 E3        30.00S
CONROE         CLEAR     77  59  53 CALM      30.00S
HOUSTON BUSH   PTCLDY    78  58  49 NE6       29.99S
HOUSTON HOBBY  PTCLDY    78  62  57 E6        29.98S
*HOUSTON SW AP CLEAR     73  59  61 E5        29.99S
PEARLAND       CLEAR     80  62  54 E6        30.00S
HOUSTON HOOKS  CLEAR     78  60  53 NE5       29.99S
ELLINGTON FLD  NOT AVBL
SUGAR LAND     CLEAR     80  59  48 NE7       29.98S
*HOUSTON EXEC  CLEAR     77 N/A N/A E6        30.00S
*CLEVELAND MUN CLEAR     77  63  62 CALM      30.00F
*WHARTON       MOCLDY    79  60  52 NE5       29.98S
*COLUMBUS      FAIR      79  61  54 E5        29.98S
$$

TXZ214>216-236>238-210000-
THE UPPER TEXAS COAST

CITY           SKY/WX    TMP DP  RH WIND       PRES   REMARKS
*ORANGE        CLEAR     76  55  46 CALM      30.00S
PORT ARTHUR    CLEAR     78  57  48 N9        29.98S
GALVESTON      CLEAR     77  67  71 E7        29.99S
ANGLETON       CLEAR     76  67  73 E6        29.98
*BAY CITY        N/A     80  65  61 E6        29.97S
PALACIOS       MOCLDY    79  68  69 E15       29.96S
$$

TXZ229>234-239>247-210000-
TEXAS COASTAL BEND AND RIO GRANDE PLAINS

CITY           SKY/WX    TMP DP  RH WIND       PRES   REMARKS
VICTORIA       PTSUNNY   81  63  54 NE9       29.96S
*BEEVILLE      PTSUNNY   76  66  70 SE8       29.96S
ROCKPORT       PTSUNNY   78  70  76 E13       29.95S
*PORT ARANSAS  PTSUNNY   75  70  83 E18G29    29.94F
*PORT LAVACA   PTSUNNY   79  70  73 SE12G20   29.96S
*INGLESIDE     PTSUNNY   77  72  84 NE8       29.95S
CORPUS CHRISTI PTSUNNY   74  70  87 N7        29.95S
CORPUS NAS     PTSUNNY   74  73  97 N9        29.95R
*ROBSTOWN      CLOUDY    76  72  86 NE10      29.95F
ALICE          MOSUNNY   77  69  76 NE14      29.95R
KINGSVILLE NAS PTSUNNY   77  70  79 NE14G21   29.94S
COTULLA        PTSUNNY   85  61  44 SE20      29.94R
*FAITH RANCH   MOSUNNY   82  63  51 E8        29.94S
LAREDO         CLOUDY    79  67  66 E10       29.95R
$$

TXZ248>255-210000-
DEEP SOUTH TEXAS

CITY           SKY/WX    TMP DP  RH WIND       PRES   REMARKS
BROWNSVILLE    MOSUNNY   83  69  62 NE9       29.89R
PORT ISABEL    SUNNY     82  69  64 NE10      29.89S
*SOUTH PADRE   SUNNY     84  70  61 NE10      29.89S
HARLINGEN      CLOUDY    81  71  71 E13       29.89R
*HEBBRONVILLE  CLOUDY    79  65  61 E13       29.95S
MCALLEN        CLOUDY    81  68  64 NE6       29.90R
*WESLACO       CLOUDY    82  67  60 NE12      29.89R
FALFURRIAS     PTSUNNY   78  68  72 E10       29.93S
EDINBURG       CLOUDY    77  69  75 NE12      29.91R
*ZAPATA        CLOUDY    84  60  44 NE9       29.91S
$$

TXZ213>215-236>238-242>244-246-247-251-254-255-210000-
CMAN STATIONS

STATION/POSITION TIME  TEMP    WIND        PRES    WAVE
                       AIR SEA DIR/SP/G            HT/PER
                 (UTC) (F)     (DEG/KT/KT) (MB)    (FT/S)
SABINE PASS      2300   77 76   20/  5/  6 1015.4
SEA RIM ST PARK  2300   76      50/  5/  6 1015.8
NORTH JETTY/GLS  2300   76 79  120/  7/  9   N/A
EAGLE POINT      2300   76 77  100/  3/  4 1015.5
MORGANS POINT    2300   78      90/  4/  7 1015.2
MISSION/ARANSAS  2200           70/ 10     1015.0
PORT O`CONNOR    2300           90/ 19/ 20   N/A
PORT ARANSAS     2300   76 78   70/ 19/ 22 1014.4
MALAQUITE BEACH  2300   78 78   40/ 16/ 17 1013.2
BAFFIN BAY       2300   75 85   30/ 10/ 12 1013.5
PORT ISABEL      2300   81 81   60/ 11/ 14 1012.4
$$

GMZ080-GMZ150>470-210000-
OFFSHORE BUOY REPORTS

STATION/POSITION TIME  TEMP    WIND        PRES    WAVE
                       AIR SEA DIR/SP/G            HT/PER
                 (UTC) (F)     (DEG/KT/KT) (MB)    (FT/S)
20 E GALVESTON   2300   75 79   60/ 10/ 12 1014.9    2/ 6
90 E PT ARANSAS  2300   75 81   60/ 17/ 21 1014.2    4/ 6
35 NE PT MANSFLD 2300   76 81   90/ 10/ 12 1012.7    4/ 6
200 E PT ISABEL  2300   81 82   80/ 12/ 14 1011.8    4/ 6
$$